This demonstration page uses our WeatherBlox Daily Observations layout. Learn more.

Left ArrowRight Arrow

Hourly Observations for September 19, 2018

Temp ( °F °C ) Dew Point ( °F °C ) Humidity (%) Winds ( mph kmh ) Pressure ( in mb ) Visibility ( mi km ) Precip ( " mm )
12:53 am 00:53 Clear 74 23.3 66 18.9 76 76 SSE 14 22 29.83 1010 10 16 0.00 0.00
1:53 am 01:53 Clear 72 22.2 66 18.9 82 82 SSE 13 20 29.82 1010 10 16 0.00 0.00
2:53 am 02:53 Clear 72 22.2 67 19.4 84 84 SE 12 19 29.80 1009 10 16 0.00 0.00
3:53 am 03:53 Clear 71 21.7 67 19.4 87 87 SE 12 19 29.79 1009 10 16 0.00 0.00
4:53 am 04:53 Clear 70 21.1 67 19.4 90 90 SE 12 19 29.79 1009 10 16 0.00 0.00
5:53 am 05:53 Clear 70 21.1 67 19.4 90 90 SE 13 20 29.79 1009 10 16 0.00 0.00
6:53 am 06:53 Clear 69 20.6 67 19.4 93 93 SE 12 19 29.80 1009 10 16 0.00 0.00
7:53 am 07:53 Sunny 69 20.6 67 19.4 93 93 SE 10 17 29.82 1010 10 16 0.00 0.00
8:53 am 08:53 Sunny 72 22.2 67 19.4 84 84 SE 16 26 29.84 1010 10 16 0.00 0.00
9:53 am 09:53 Sunny 76 24.4 67 19.4 74 74 SSE 17 28 29.84 1010 10 16 0.00 0.00
10:53 am 10:53 Sunny 80 26.7 67 19.4 64 64 SSE 18 30 29.84 1011 10 16 0.00 0.00
11:53 am 11:53 Sunny 82 27.8 67 19.4 60 60 S 14 22 29.84 1010 10 16 0.00 0.00
12:53 pm 12:53 Sunny 85 29.4 67 19.4 55 55 SSE 16 26 29.81 1010 10 16 0.00 0.00
1:53 pm 13:53 Mostly Sunny 87 30.6 66 18.9 50 50 SSE 13 20 29.78 1009 10 16 0.00 0.00
2:53 pm 14:53 Mostly Sunny 88 31.1 66 18.9 48 48 SSE 14 22 29.75 1007 10 16 0.00 0.00
3:53 pm 15:53 Sunny 90 32.2 65 18.3 44 44 SSE 14 22 29.71 1006 10 16 0.00 0.00
4:53 pm 16:53 Partly Cloudy 90 32.2 65 18.3 44 44 SSE 14 22 29.69 1005 10 16 0.00 0.00
5:53 pm 17:53 Partly Cloudy 89 31.7 63 17.2 42 42 SE 16 26 29.67 1005 10 16 0.00 0.00
6:53 pm 18:53 Mostly Cloudy 85 29.4 64 17.8 50 50 SSE 18 30 29.70 1006 10 16 0.00 0.00
7:11 pm 19:11 Cloudy with Nearby Thunderstorms 75 23.9 63 17.2 66 66 SW 26 43 29.71 1006 6 10 0.00 0.00
7:30 pm 19:30 Cloudy with Strong Thunderstorms 70 21.1 66 18.9 87 87 SW 23 37 29.74 1007 3 4 0.09 2.29
7:38 pm 19:38 Cloudy with Thunderstorms 70 21.1 66 18.9 87 87 SW 17 28 29.74 1007 6 10 0.10 2.54
7:51 pm 19:51 Mostly Cloudy with Nearby Thunderstorms 70 21 66 19 88 88 SSW 12 19 29.74 1007 10 16 0.10 2.54
7:53 pm 19:53 Mostly Cloudy with Nearby Thunderstorms 70 21.1 67 19.4 90 90 SSW 10 17 29.77 1008 10 16 0.10 2.54
8:09 pm 20:09 Partly Cloudy 70 21.1 67 19.4 90 90 S 8 13 29.74 1007 10 16 0.00 0.00
8:53 pm 20:53 Cloudy 71 21.7 68 20 90 90 SSE 8 13 29.80 1009 10 16 0.00 0.00
9:53 pm 21:53 Clear 72 22.2 67 19.4 84 84 SE 7 11 29.80 1009 10 16 0.00 0.00
10:53 pm 22:53 Clear 72 22.2 63 17.2 73 73 SE 13 20 29.80 1009 10 16 0.00 0.00
11:53 pm 23:53 Clear 71 21.7 62 16.7 73 73 SE 12 19 29.79 1009 10 16 0.00 0.00

Powered by AerisWeather